FW9314 Weather Reports


Display with metric or nautical units.
time (UTC)temp
F
wind
direction
speed
MPH
gust
MPH
rain 1hr
in
rain 24hr
in
rain mn
in
humidity
%
barometer
mb
20260505054626 62 354 1.0 10.0 0.00 0.00 0.00 45 1007.1
20260505054057 63 358 3.0 10.0 0.00 0.00 0.00 43 1006.6
20260505053557 63 64 4.0 10.0 0.00 0.00 0.00 40 1006.2
20260505053113 64 39 4.0 11.0 0.00 0.00 0.00 40 1006.0
20260505052558 64 25 4.0 12.0 0.00 0.00 0.00 40 1005.9
20260505052058 64 78 5.0 12.0 0.00 0.00 0.00 40 1005.7
20260505051600 65 357 4.0 9.0 0.00 0.00 0.00 39 1005.5
20260505051059 65 57 3.0 6.0 0.00 0.00 0.00 39 1005.2
20260505050558 66 340 2.0 10.0 0.00 0.00 0.00 40 1005.1
20260505050105 66 41 4.0 11.0 0.00 0.00 0.00 40 1005.0
20260505041601 69 27 3.0 7.0 0.00 0.00 0.00 38 1004.6
20260505041055 69 39 2.0 8.0 0.00 0.00 0.00 38 1004.4
20260505040557 69 50 2.0 12.0 0.00 0.00 0.00 38 1004.3
20260505040101 69 22 1.0 14.0 0.00 0.00 0.00 38 1004.1
20260505035557 70 30 3.0 14.0 0.00 0.00 0.00 38 1004.4
20260505035058 70 341 2.0 8.0 0.00 0.00 0.00 38 1004.5
20260505034559 71 61 3.0 7.0 0.00 0.00 0.00 39 1004.4
20260505034057 71 58 2.0 8.0 0.00 0.00 0.00 39 1004.3
20260505033558 72 18 2.0 9.0 0.00 0.00 0.00 39 1004.2
20260505033100 72 67 3.0 9.0 0.00 0.00 0.00 39 1004.2
20260505032557 72 83 3.0 9.0 0.00 0.00 0.00 39 1004.0
20260505032058 72 51 2.0 8.0 0.00 0.00 0.00 41 1003.9
20260505031610 72 29 2.0 8.0 0.00 0.00 0.00 43 1003.9
20260505031057 72 353 2.0 8.0 0.00 0.00 0.00 44 1003.7
20260505030557 71 64 2.0 8.0 0.00 0.00 0.00 51 1003.8
20260505030059 70 58 1.0 8.0 0.00 0.00 0.00 54 1003.5
20260505025558 69 49 2.0 4.0 0.00 0.00 0.00 62 1003.5
20260505025056 69 19 1.0 3.0 0.00 0.00 0.00 67 1003.2
20260505024601 69 41 0.0 3.0 0.00 0.00 0.00 70 1003.1
20260505024101 69 354 0.0 1.0 0.00 0.00 0.00 70 1002.8
20260505023558 69 0 0.0 0.0 0.00 0.00 0.00 68 1002.6
20260505023120 70 0 0.0 0.0 0.00 0.00 0.00 67 1002.5
20260505022558 70 0 0.0 1.0 0.00 0.00 0.00 67 1002.4
20260505022058 70 0 0.0 1.0 0.00 0.00 0.00 67 1002.3
20260505021559 70 0 0.0 1.0 0.00 0.00 0.00 67 1002.3
20260505021057 70 256 0.0 1.0 0.00 0.00 0.00 68 1002.3
20260505020557 70 0 0.0 1.0 0.00 0.00 0.00 68 1002.2
20260505020057 70 0 0.0 0.0 0.00 0.00 0.00 67 1002.0
20260505015609 71 0 0.0 0.0 0.00 0.00 0.00 66 1002.0
20260505015058 71 0 0.0 0.0 0.00 0.00 0.00 65 1001.8
20260505014608 71 0 0.0 0.0 0.00 0.00 0.00 64 1001.7
20260505014057 72 0 0.0 0.0 0.00 0.00 0.00 62 1001.7
20260505013558 72 0 0.0 0.0 0.00 0.00 0.00 62 1001.7
20260505013110 72 0 0.0 0.0 0.00 0.00 0.00 62 1001.6
20260505012558 72 0 0.0 0.0 0.00 0.00 0.00 61 1001.7
20260505012057 73 0 0.0 0.0 0.00 0.00 0.00 61 1001.6
20260505011600 73 0 0.0 0.0 0.00 0.00 0.00 60 1001.5
20260505011057 74 0 0.0 0.0 0.00 0.00 0.00 59 1001.5
20260505010557 74 0 0.0 0.0 0.00 0.00 0.00 57 1001.4
20260505005558 75 0 0.0 0.0 0.00 0.00 0.00 56 1001.3
20260505005058 76 0 0.0 0.0 0.00 0.00 0.00 55 1001.5
20260505004559 76 0 0.0 0.0 0.00 0.00 0.00 54 1001.4
20260505004101 76 0 0.0 1.0 0.00 0.00 0.00 53 1001.4
20260505003557 77 0 0.0 1.0 0.00 0.00 0.00 53 1001.5
20260505003100 77 0 0.0 1.0 0.00 0.00 0.00 52 1001.4
20260505002559 78 0 0.0 1.0 0.00 0.00 0.00 50 1001.4
20260505002058 78 0 0.0 1.0 0.00 0.00 0.00 50 1001.5
20260505001606 79 162 0.0 5.0 0.00 0.00 0.00 49 1001.4
20260505001058 79 0 0.0 5.0 0.00 0.00 0.00 49 1001.4
20260505000557 79 0 0.0 5.0 0.00 0.00 0.00 47 1001.4
20260505000116 80 0 0.0 1.0 0.00 0.00 0.00 47 1001.5
20260504235558 80 0 0.0 1.0 0.00 0.00 0.00 46 1001.5
20260504235058 80 0 0.0 1.0 0.00 0.00 0.00 45 1001.6
20260504234558 80 0 0.0 3.0 0.00 0.00 0.00 44 1001.4
20260504234057 81 0 0.0 3.0 0.00 0.00 0.00 43 1001.5
20260504233557 81 0 1.0 3.0 0.00 0.00 0.00 42 1001.6
20260504233101 81 39 0.0 4.0 0.00 0.00 0.00 43 1001.5
20260504232558 81 124 1.0 4.0 0.00 0.00 0.00 42 1001.6
20260504232100 82 207 1.0 4.0 0.00 0.00 0.00 42 1001.6
20260504231557 82 0 1.0 3.0 0.00 0.00 0.00 41 1001.6
20260504231057 82 0 0.0 4.0 0.00 0.00 0.00 43 1001.6
20260504230558 82 118 0.0 4.0 0.00 0.00 0.00 42 1001.4
20260504230108 82 155 0.0 2.0 0.00 0.00 0.00 42 1001.5
20260504225558 82 143 0.0 2.0 0.00 0.00 0.00 41 1001.5
20260504225158 82 147 0.0 5.0 0.00 0.00 0.00 41 1001.4
20260504224600 82 0 1.0 5.0 0.00 0.00 0.00 42 1001.4
20260504224058 83 166 1.0 4.0 0.00 0.00 0.00 40 1001.3
20260504223558 83 0 0.0 3.0 0.00 0.00 0.00 39 1001.3
20260504223105 84 159 0.0 5.0 0.00 0.00 0.00 39 1001.4
20260504222558 84 0 1.0 5.0 0.00 0.00 0.00 36 1001.3
20260504222058 85 141 0.0 5.0 0.00 0.00 0.00 34 1001.2
20260504221608 85 104 0.0 5.0 0.00 0.00 0.00 35 1001.3
20260504221058 86 246 1.0 5.0 0.00 0.00 0.00 35 1001.2
20260504220557 85 167 2.0 5.0 0.00 0.00 0.00 36 1001.3
20260504220101 86 257 1.0 5.0 0.00 0.00 0.00 34 1001.3
20260504215559 86 122 1.0 5.0 0.00 0.00 0.00 36 1001.3
20260504215057 86 122 1.0 5.0 0.00 0.00 0.00 36 1001.3
20260504214600 86 128 1.0 5.0 0.00 0.00 0.00 37 1001.4
20260504214057 85 175 1.0 4.0 0.00 0.00 0.00 38 1001.4
20260504213558 86 102 1.0 3.0 0.00 0.00 0.00 38 1001.5
20260504213105 86 165 0.0 3.0 0.00 0.00 0.00 40 1001.7
20260504212558 85 120 0.0 4.0 0.00 0.00 0.00 40 1001.6
20260504212100 85 95 1.0 5.0 0.00 0.00 0.00 39 1001.5
20260504211614 85 283 1.0 5.0 0.00 0.00 0.00 42 1001.5
20260504211057 85 173 0.0 3.0 0.00 0.00 0.00 41 1001.6
20260504210557 85 352 1.0 3.0 0.00 0.00 0.00 40 1001.7
20260504210059 85 89 0.0 4.0 0.00 0.00 0.00 41 1001.7
20260504205706 85 102 0.0 4.0 0.00 0.00 0.00 40 1001.8
20260504205100 86 124 0.0 2.0 0.00 0.00 0.00 37 1001.9
20260504204603 86 0 1.0 2.0 0.00 0.00 0.00 35 1001.9
20260504204059 86 0 0.0 2.0 0.00 0.00 0.00 34 1001.9
20260504203600 85 0 0.0 4.0 0.00 0.00 0.00 33 1002.0
20260504203107 85 204 0.0 4.0 0.00 0.00 0.00 37 1002.1
20260504202557 85 143 0.0 3.0 0.00 0.00 0.00 35 1002.2
20260504202058 85 307 0.0 3.0 0.00 0.00 0.00 39 1002.2
20260504201600 85 167 0.0 5.0 0.00 0.00 0.00 36 1002.1
20260504201102 85 0 0.0 5.0 0.00 0.00 0.00 36 1002.3
20260504200558 85 270 1.0 5.0 0.00 0.00 0.00 33 1002.3
20260504200058 86 288 0.0 3.0 0.00 0.00 0.00 35 1002.4
20260504195558 86 155 0.0 4.0 0.00 0.00 0.00 37 1002.4
20260504195057 85 0 0.0 5.0 0.00 0.00 0.00 35 1002.4
20260504194559 85 287 1.0 5.0 0.00 0.00 0.00 33 1002.3
20260504194057 86 224 1.0 5.0 0.00 0.00 0.00 36 1002.2
20260504193557 86 0 0.0 5.0 0.00 0.00 0.00 34 1002.3
20260504193102 86 0 1.0 5.0 0.00 0.00 0.00 35 1002.4
20260504192600 86 308 1.0 4.0 0.00 0.00 0.00 37 1002.3
20260504192059 86 215 1.0 4.0 0.00 0.00 0.00 37 1002.3
20260504191608 86 160 2.0 4.0 0.00 0.00 0.00 35 1002.3
20260504191058 86 219 1.0 3.0 0.00 0.00 0.00 36 1002.3
20260504190558 86 298 0.0 3.0 0.00 0.00 0.00 34 1002.2
20260504190117 85 153 1.0 4.0 0.00 0.00 0.00 31 1002.5
20260504185557 85 294 0.0 4.0 0.00 0.00 0.00 34 1002.4
20260504185057 84 259 0.0 4.0 0.00 0.00 0.00 35 1002.3
20260504184558 84 287 1.0 4.0 0.00 0.00 0.00 33 1002.2
20260504184058 84 312 0.0 6.0 0.00 0.00 0.00 37 1002.4
20260504183600 84 126 2.0 6.0 0.00 0.00 0.00 38 1002.3
20260504183106 83 120 0.0 5.0 0.00 0.00 0.00 39 1002.5
20260504182557 83 284 3.0 5.0 0.00 0.00 0.00 36 1002.5
20260504182101 84 134 0.0 3.0 0.00 0.00 0.00 37 1002.6
20260504181603 83 158 1.0 4.0 0.00 0.00 0.00 36 1002.6
20260504181057 83 115 1.0 4.0 0.00 0.00 0.00 37 1002.6
20260504180557 83 260 0.0 6.0 0.00 0.00 0.00 39 1002.5
20260504180117 83 256 1.0 6.0 0.00 0.00 0.00 39 1002.7
20260504175602 83 109 1.0 4.0 0.00 0.00 0.00 41 1002.7
20260504175058 83 235 0.0 4.0 0.00 0.00 0.00 41 1002.6
20260504174601 82 290 2.0 4.0 0.00 0.00 0.00 39 1002.7
20260504174058 83 0 1.0 3.0 0.00 0.00 0.00 40 1002.8
20260504173558 83 85 0.0 2.0 0.00 0.00 0.00 42 1002.8
20260504173106 83 256 0.0 4.0 0.00 0.00 0.00 42 1002.7
20260504172557 82 236 1.0 4.0 0.00 0.00 0.00 40 1002.8
20260504172057 82 293 0.0 4.0 0.00 0.00 0.00 41 1002.9
20260504171602 81 85 0.0 4.0 0.00 0.00 0.00 42 1003.1
20260504171059 81 276 1.0 4.0 0.00 0.00 0.00 39 1003.0
20260504170558 80 0 1.0 4.0 0.00 0.00 0.00 44 1003.1
20260504160107 76 271 0.0 6.0 0.00 0.00 0.00 45 1003.1
20260504151058 74 195 1.0 4.0 0.00 0.00 0.00 49 1003.2
20260504150558 73 311 1.0 6.0 0.00 0.00 0.00 52 1003.0
20260504141058 68 106 1.0 5.0 0.00 0.00 0.00 61 1003.3
20260504140558 67 276 1.0 5.0 0.00 0.00 0.00 61 1003.5
20260504140106 67 283 1.0 4.0 0.00 0.00 0.00 62 1003.4
20260504130559 62 0 0.0 2.0 0.00 0.00 0.00 68 1003.2
20260504110601 55 113 0.0 1.0 0.00 0.00 0.00 81 1003.2
20260504100602 56 0 0.0 1.0 0.00 0.00 0.00 77 1003.7
20260504081558 59 0 0.0 1.0 0.00 0.00 0.00 69 1004.4
20260504081058 59 0 0.0 1.0 0.00 0.00 0.00 69 1004.4
20260504080558 59 27 0.0 1.0 0.00 0.00 0.00 69 1004.5